Location: Latta
(44.3000°N, 77.3397°W)
Time: 15:41:32
(UTC+00:00)

BlueWalker 3 - Visible Passes

Search period start: 08 December 2022 00:00
Search period end: 18 December 2022 00:00
Orbit: 501 x 518 km, 53.2° (Epoch: 08 December)

Date Brightness Start Highest point End Pass type
(mag) Time Alt. Az. Time Alt. Az. Time Alt. Az.
08 Dec 3.6 00:06:21 10° WNW 00:08:30 31° WNW 00:08:30 31° WNW visible
08 Dec 3.0 22:09:23 10° NW 22:12:53 30° NNE 22:16:21 10° E visible
08 Dec 2.4 23:47:57 10° WNW 23:51:15 60° W 23:51:15 60° W visible
09 Dec 2.1 23:29:33 10° WNW 23:33:26 70° SW 23:34:13 52° SSE visible
10 Dec 2.3 23:11:08 10° WNW 23:15:00 65° SW 23:17:27 21° SE visible
11 Dec 2.4 22:52:42 10° WNW 22:56:34 61° SW 23:00:23 10° SE visible
12 Dec 2.6 22:34:16 10° WNW 22:38:07 57° SW 22:41:56 10° SE visible
13 Dec 2.8 22:15:51 10° WNW 22:19:40 54° SW 22:23:27 10° SE visible
14 Dec 3.0 21:57:25 10° WNW 22:01:13 50° SW 22:04:58 10° SE visible
